Location: Buchloe
(48.0161°N, 10.7316°E)
Time: 05:57:48
(UTC+01:00)

ISS - Pass Details

Date: 04 December 2021
Orbit: 413 x 423 km, 51.6° (Epoch: 18 January)

Event Time Altitude Azimuth Distance (km) Brightness Sun altitude
Rises 19:28:07 0° 287° (WNW) 2,378 1.1 -29.7°
Reaches altitude 10° 19:30:37 10° 269° (W) 1,507 0.0 -30.1°
Enters shadow 19:31:31 14° 256° (WSW) 1,263 -0.6 -30.3°
